• MPC Preparation (Info)

  • MPEC 2015-D52 : 2015 DL155

    The following Minor Planet Electronic Circular may be linked-to from your own Web pages, but must not otherwise be redistributed electronically.

    A form allowing access to any MPEC is at the bottom of this page.


    Read MPEC 2015-D51 Read MPEC 2015-D53


    M.P.E.C. 2015-D52                                Issued 2015 Feb. 21, 15:04 UT
    
         The Minor Planet Electronic Circulars contain information on unusual
             minor planets and routine data on comets.  They are published
       on behalf of Commission 20 of the International Astronomical Union by the
              Minor Planet Center, Smithsonian Astrophysical Observatory,
                              Cambridge, MA 02138, U.S.A.
    
                 Prepared using the Tamkin Foundation Computer Network
    
                                  MPC@CFA.HARVARD.EDU
                URL https://www.minorplanetcenter.net/    ISSN 1523-6714
    
                                      2015 DL155
    
    Observations:
         K15DF5L* C2015 02 19.36819 10 25 27.54 +17 54 30.0          21.5 VqED052G96
         K15DF5L  C2015 02 19.37276 10 25 27.70 +17 55 01.5          20.8 VqED052G96
         K15DF5L  C2015 02 19.37734 10 25 27.80 +17 55 32.1          21.4 VqED052G96
         K15DF5L  C2015 02 19.38193 10 25 27.88 +17 56 03.9          20.9 VqED052G96
         K15DF5L  C2015 02 19.40572 10 25 28.27 +17 58 46.5          20.6 VqED052G96
         K15DF5L  C2015 02 19.40678 10 25 28.25 +17 58 53.2          21.2 VqED052G96
         K15DF5L  C2015 02 19.40783 10 25 28.27 +17 59 00.8          21.0 VqED052G96
         K15DF5L  C2015 02 19.40889 10 25 28.30 +17 59 07.7          21.4 VqED052G96
         K15DF5L  C2015 02 20.29997 10 26 00.91 +19 38 14.8          21.8 VqED052G96
         K15DF5L  C2015 02 20.30059 10 26 00.88 +19 38 18.1          21.8 VqED052G96
         K15DF5L  C2015 02 20.30182 10 26 00.91 +19 38 27.0          21.6 VqED052G96
         K15DF5L  C2015 02 21.34000 10 26 34.34 +21 27 44.9          21.4 VqED052G96
         K15DF5L  C2015 02 21.34067 10 26 34.26 +21 27 48.6          22.0 VqED052G96
    
    Observer details:
    G96 Mt. Lemmon Survey.  Observer E. J. Christensen.  Measurers
        E. J. Christensen, D. C. Fuls, A. R. Gibbs, A. D. Grauer, R. E. Hill,
        J. A. Johnson, R. A. Kowalski, S. M. Larson, R. G. Matheny, F. C. Shelly.
        1.5-m reflector + CCD.
    
    Orbital elements:
    2015 DL155                                               Earth MOID = 0.1317 AU
    Epoch 2014 Dec. 9.0 TT = JDT 2457000.5                  MPC
    M 356.65812              (2000.0)            P               Q
    n   0.58615120     Peri.  295.59332     +0.09015902     -0.97763271
    a   1.4140441      Node   147.43308     +0.99243964     +0.07223952
    e   0.2954556      Incl.   20.67097     +0.08327617     +0.19752402
    P   1.68           H   24.3           G   0.15           U   9
    Residuals in seconds of arc
    150219 G96  0.9-  0.2-    150219 G96  0.4-  0.0     150220 G96  0.1-  0.3+
    150219 G96  0.3+  0.0     150219 G96  0.3-  0.4+    150221 G96  0.7+  0.2+
    150219 G96  0.6+  0.6-    150219 G96  0.2-  0.1+    150221 G96  0.6-  0.2-
    150219 G96  0.7+  0.1-    150220 G96  0.3+  0.2+
    150219 G96  0.2+  0.5+    150220 G96  0.3-  0.6-
    
    Ephemeris:
    2015 DL155               a,e,i = 1.41, 0.30, 21                  q = 0.9963
    Date    TT    R. A. (2000) Decl.     Delta      r     Elong.  Phase     V
    2015 01 22    09 47 26.9 -47 18 46   0.1766  1.0568   109.7    61.3    22.8
    ...
    2015 02 06    10 13 47.2 -14 49 20   0.1424  1.1071   146.2    29.7    21.6
    ...
    2015 02 14    10 21 49.0 +06 15 00   0.1529  1.1379   169.1     9.4    21.1
    ...
    2015 02 20    10 25 50.2 +19 05 32   0.1754  1.1624   171.4     7.3    21.4
    2015 02 21    10 26 23.6 +20 52 45   0.1802  1.1665   169.6     8.8    21.5
    2015 02 22    10 26 55.5 +22 33 54   0.1852  1.1707   167.8    10.3    21.6
    ...
    2015 02 28    10 29 47.0 +30 43 15   0.2198  1.1962   157.3    18.6    22.4
    ...
    2015 03 08    10 33 19.5 +37 26 11   0.2749  1.2312   146.6    26.4    23.1
    ...
    2015 03 23    10 41 34.5 +42 26 35   0.3956  1.2980   132.8    34.3    24.3
    
    A. U. Tomatic                (C) Copyright 2015 MPC           M.P.E.C. 2015-D52
    

    Read MPEC 2015-D51 Read MPEC 2015-D53


    MPEC number:

    Enter an MPEC number in one of the following forms:

    • 1997-B01 (the full form)
    • J97B01 (the packed version of the full form)
    • B01 (the abbreviated form)